Flag for United Kingdom Weather past 2 weeks in Bournemouth, England, United Kingdom

Now
59 °F

Drizzle. Broken clouds.


Feels Like: 58 °F
Forecast: 51 / 62 °F
Wind: 8 mph from Southwest

Location: Bournemouth Airport

Current Time: Oct 23, 2014 at 7:35:51 PM

Latest Report: Oct 23, 2014 at 6:50 PM


Visibility: 4 mi

Pressure: 30.07 "Hg

Humidity: 94%

Dew point: 57 °F

Location of BournemouthLocation

Historic Weather in Bournemouth — Graph

°F

Bournemouth temperature yesterday

Maximum temperature yesterday: 57 °F (at 2:20 PM)
Minimum temperature yesterday: 37 °F (at 5:50 AM)
Average temperature yesterday: 50 °F

Past Weeks' High & Low Weather Summary

 TemperatureHumidityPressure
High66 °F (Oct 18, 2:20 PM)100% (Oct 11, 12:50 AM)30.33 "Hg (Oct 11, 12:50 AM)
Low37 °F (Oct 22, 5:50 AM)55% (Oct 21, 1:20 PM)29.36 "Hg (Oct 8, 6:20 PM)
Average56 °F87%29.80 "Hg
* Reported Oct 8 6:20 PM — Oct 23 6:20 PM, Bournemouth, Weather by CustomWeather, © 2014

Note: Actual official high and low records may vary slightly from our data, if they occured in-between our weather recording intervals... More about our weather records

Advertising

Bournemouth weather history for previous 24 hours

 ConditionsComfort  
Time TempWeatherWind HumidityBarometerVisibility
6:20 PM
Oct 23
59 °FMixture of precip. Fog.12 mph94%30.07 "Hg4 mi
5:50 PM59 °FDrizzle. Fog.12 mph94%30.07 "Hg2 mi
5:20 PM59 °FDrizzle. Partly sunny.10 mph94%30.07 "Hg2 mi
4:50 PM59 °FDrizzle. Partly sunny.10 mph94%30.07 "Hg3 mi
4:20 PM59 °FPartly sunny.9 mph94%30.07 "HgN/A
3:50 PM61 °FPartly sunny.10 mph88%30.09 "HgN/A
3:20 PM59 °FDrizzle. Partly sunny.13 mph88%30.09 "HgN/A
2:50 PM59 °FScattered clouds.12 mph94%30.09 "HgN/A
1:50 PM59 °FLight rain. Broken clouds.10 mph88%30.09 "HgN/A
1:20 PM59 °FBroken clouds.10 mph88%30.12 "HgN/A
12:50 PM59 °FPartly sunny.10 mph88%30.12 "HgN/A
12:20 PM59 °FBroken clouds.8 mph88%30.12 "HgN/A
11:50 AM57 °FBroken clouds.8 mph94%30.12 "HgN/A
11:20 AM59 °FBroken clouds.9 mph82%30.15 "HgN/A
10:50 AM59 °FBroken clouds.9 mph88%30.15 "HgN/A
10:20 AM57 °FPartly sunny.8 mph94%30.15 "HgN/A
9:50 AM55 °FPartly sunny.6 mph94%30.15 "HgN/A
9:20 AM55 °FBroken clouds.7 mph94%30.15 "HgN/A
8:50 AM55 °FBroken clouds.9 mph94%30.15 "HgN/A
8:20 AM54 °FPassing clouds.5 mph94%30.15 "HgN/A
7:50 AM54 °FPassing clouds.7 mph94%30.15 "HgN/A
7:20 AM55 °FDrizzle. Fog.13 mph88%30.15 "Hg3 mi
6:50 AM55 °FOvercast.6 mph77%30.15 "HgN/A
6:20 AM55 °FOvercast.6 mph77%30.15 "HgN/A
5:50 AM55 °FOvercast.6 mph77%30.15 "HgN/A
5:20 AM54 °FOvercast.5 mph82%30.18 "HgN/A
4:50 AM54 °FOvercast.5 mph77%30.18 "HgN/A
2:50 AM54 °FOvercast.7 mph77%30.21 "HgN/A
1:50 AM54 °FOvercast.7 mph77%30.21 "HgN/A
12:20 AM55 °FOvercast.7 mph72%30.24 "HgN/A
11:50 PM
Oct 22
54 °FOvercast.7 mph77%30.24 "HgN/A
11:20 PM54 °FOvercast.7 mph77%30.24 "HgN/A
10:50 PM54 °FOvercast.9 mph77%30.24 "HgN/A
10:20 PM55 °FOvercast.14 mph72%30.24 "HgN/A
9:50 PM55 °FOvercast.8 mph72%30.24 "HgN/A
9:20 PM54 °FPassing clouds.7 mph77%30.24 "HgN/A
8:50 PM54 °FPassing clouds.6 mph82%30.27 "HgN/A
8:20 PM54 °FPassing clouds.7 mph77%30.27 "HgN/A
7:50 PM54 °FPassing clouds.6 mph82%30.27 "HgN/A
7:20 PM54 °FPassing clouds.6 mph77%30.27 "HgN/A
Weather by CustomWeather, © 2014

See weather overviewHow to use our weather pages